Location: Hopkins Observatory
(42.6965°N, 73.1843°W)
Time: 03:15:33
(UTC-05:00)

Amateur Radio Satellites - All Passes

Search period start: 29 January 2015 02:45
Search period end: 30 January 2015 02:45
Location: Hopkins Observatory, 42.6965°N, 73.1843°W

Satellite Date Start Highest point End Downlink Frequencies (MHz)
Time Altitude Azimuth
O/OREOS (USA 219) 29 Jan 02:46:07 02:50:05 28° 256° (WSW) 02:53:58 437.305
ITAMSAT 1 29 Jan 02:53:59 02:59:03 51° 289° (WNW) 03:04:05 435.822/435.867
GONETS M04 29 Jan 02:59:12 03:06:36 28° 295° (WNW) 03:13:45
M-CUBED/EXP-1 PRIME 29 Jan 03:05:18 03:08:24 20° 260° (W) 03:11:15 437.505
AIST 2 29 Jan 03:19:36 03:23:50 64° 306° (NW) 03:28:08 435.215
PCSat 29 Jan 03:26:23 03:30:56 29° 110° (ESE) 03:35:36 145.827
BEESAT 2 29 Jan 03:26:43 03:30:16 26° 315° (NW) 03:33:49 435.950
DANDE 29 Jan 03:28:41 03:36:17 45° 90° (E) 03:44:25 436.750
BEESAT 3 29 Jan 03:41:59 03:44:59 19° 319° (NW) 03:47:56 437.485
JAS-2 29 Jan 03:46:44 03:51:25 27° 94° (E) 03:56:42 435.910
Gurwin Techsat 1B 29 Jan 03:49:30 03:53:50 25° 295° (WNW) 03:58:03 435.225
ISS 29 Jan 03:51:46 03:55:05 79° 31° (NNE) 03:58:24 145.825
CUSAT 1 29 Jan 03:59:03 04:07:14 78° 97° (E) 04:15:40 437.405
MOZHAYETS 4 29 Jan 04:11:47 04:16:20 63° 259° (W) 04:20:54
HORYU 2 29 Jan 04:16:06 04:20:01 30° 292° (WNW) 04:23:51 437.375
RS-15 29 Jan 04:18:14 04:28:37 54° 114° (ESE) 04:39:09 29.354- 29.394
AO-7 29 Jan 04:23:34 04:31:58 84° 107° (ESE) 04:40:18 29.400- 29.500
STRAND 1 29 Jan 04:27:39 04:30:13 14° 60° (ENE) 04:33:01 437.568
CUBESAT XI-V 29 Jan 04:28:14 04:30:59 16° 64° (ENE) 04:33:55 437.345
PRISM 29 Jan 04:37:58 04:41:23 26° 68° (ENE) 04:44:53 437.425
Cubesat XI-IV 29 Jan 04:56:16 04:58:55 14° 88° (E) 05:01:51 437.490
AIST 2 29 Jan 05:01:53 05:03:23 11° 327° (NNW) 05:04:45 435.215
YUBILEINY 29 Jan 05:07:37 05:14:35 26° 64° (ENE) 05:21:48 435.215
PCSat 29 Jan 05:09:02 05:14:12 43° 308° (NW) 05:19:23 145.827
DANDE 29 Jan 05:11:51 05:19:48 47° 289° (WNW) 05:28:03 436.750
CUTE-I 29 Jan 05:15:21 05:19:19 21° 91° (E) 05:23:26 437.470
ISS 29 Jan 05:29:32 05:31:14 13° 228° (SW) 05:32:49 145.825
JAS-2 29 Jan 05:31:23 05:36:45 47° 289° (WNW) 05:42:40 435.910
CUSAT 1 29 Jan 05:44:15 05:51:11 27° 297° (WNW) 05:57:53 437.405
CUBESAT XI-V 29 Jan 06:03:31 06:08:03 56° 260° (W) 06:12:36 437.345
STRAND 1 29 Jan 06:03:45 06:08:51 79° 257° (WSW) 06:14:00 437.568
PRISM 29 Jan 06:13:24 06:16:54 26° 265° (W) 06:20:21 437.425
AO-7 29 Jan 06:17:30 06:23:57 25° 307° (NW) 06:30:09 29.400- 29.500
RS-15 29 Jan 06:30:41 06:41:12 50° 318° (NW) 06:51:51 29.354- 29.394
Cubesat XI-IV 29 Jan 06:34:20 06:39:43 76° 286° (WNW) 06:45:06 437.490
CUTE-I 29 Jan 06:54:32 06:59:45 52° 289° (WNW) 07:04:56 437.470
PCSat 29 Jan 06:58:38 06:59:13 10° 331° (NNW) 06:59:35 145.827
DANDE 29 Jan 07:03:18 07:05:47 11° 312° (NW) 07:07:38 436.750
YUBILEINY 29 Jan 07:03:37 07:12:22 72° 266° (W) 07:21:06 435.215
GOMX 1 29 Jan 07:23:07 07:24:46 12° 83° (E) 07:26:45 467.674
BRITE-PL 29 Jan 07:25:08 07:28:59 19° 88° (E) 07:32:57 437.365/2234.400
CANX-2 29 Jan 07:30:53 07:31:50 11° 87° (E) 07:33:03 2200.000
DOVE 4 29 Jan 07:36:57 07:37:39 10° 83° (E) 07:38:43 437.250
CUTE 1.7 + AOD 2 29 Jan 07:53:27 07:56:20 18° 91° (E) 07:59:20 437.475
VERMONT LUNAR 29 Jan 08:00:52 08:03:17 18° 153° (SSE) 08:05:45 437.305
Cubesat XI-IV 29 Jan 08:17:12 08:19:02 11° 303° (WNW) 08:20:35 437.490
HO-68 29 Jan 08:22:08 08:28:58 47° 99° (E) 08:35:50 435.675
SEEDS 29 Jan 08:23:37 08:27:26 33° 96° (E) 08:31:13 437.485
ANTELSAT 29 Jan 08:24:24 08:27:07 16° 64° (ENE) 08:30:00 437.575/2403.000
TIGRISAT 29 Jan 08:31:47 08:34:53 18° 65° (ENE) 08:38:07 435.000
CUBEBUG 2 29 Jan 08:37:01 08:38:51 13° 87° (E) 08:40:54 437.445
NANOSAT C BR1 29 Jan 08:44:34 08:46:33 13° 63° (ENE) 08:48:43 145.865
ZACube-1 29 Jan 08:46:32 08:46:43 10° 85° (E) 08:47:13 437.345
RS-15 29 Jan 08:48:39 08:57:09 24° 350° (N) 09:05:44 29.354- 29.394
COMPASS 1 29 Jan 08:50:08 08:54:15 55° 100° (E) 08:58:19 437.405
DX 1 29 Jan 08:50:51 08:53:04 14° 90° (E) 08:55:28 434.975-435.025
FUNcube-1 29 Jan 08:56:48 08:58:56 14° 88° (E) 09:01:14 145.935
QB50P2 29 Jan 08:57:46 09:00:41 19° 66° (ENE) 09:03:45 145.880/145.840
GOMX 1 29 Jan 08:58:19 09:03:50 90° 88° (E) 09:09:03 467.674
PHONESAT 2.4 29 Jan 08:58:25 09:01:25 25° 156° (SSE) 09:04:27 2401.200-2431.200
CINEMA 3 29 Jan 08:59:04 09:03:35 38° 96° (E) 09:07:57 145.822/145.860
BRITE-PL 29 Jan 09:02:23 09:08:02 63° 287° (WNW) 09:13:26 437.365/2234.400
YUBILEINY 29 Jan 09:03:44 09:07:47 13° 284° (WNW) 09:11:12 435.215
CANX-2 29 Jan 09:04:08 09:08:21 66° 286° (WNW) 09:12:31 2200.000
QB50P1 29 Jan 09:06:43 09:10:00 22° 67° (ENE) 09:13:24 145.935-145.965
DOVE 4 29 Jan 09:11:06 09:16:24 88° 108° (ESE) 09:21:23 437.250
DELFI C3 29 Jan 09:12:31 09:16:10 32° 96° (E) 09:19:50 145.870
UWE-3 29 Jan 09:15:45 09:19:34 27° 94° (E) 09:23:19 435.000/436.395/437.385
AAUSAT CUBESAT 2 29 Jan 09:16:30 09:20:41 85° 284° (WNW) 09:24:49 437.432
BUGSAT 1 29 Jan 09:19:01 09:22:11 22° 67° (ENE) 09:25:29 437.445
POLYITAN 1 29 Jan 09:20:51 09:24:39 31° 70° (ENE) 09:28:31 437.675
UNISAT 6 29 Jan 09:22:51 09:27:29 57° 73° (ENE) 09:32:06 437.425
CUTE 1.7 + AOD 2 29 Jan 09:28:31 09:32:29 39° 288° (WNW) 09:36:23 437.475
Oscar 11 29 Jan 09:29:17 09:33:35 63° 100° (E) 09:37:50 145.826/435.025
VERMONT LUNAR 29 Jan 09:37:36 09:40:58 48° 169° (S) 09:44:22 437.305
POPSAT HIP 1 29 Jan 09:40:32 09:44:40 50° 73° (ENE) 09:48:52 437.405
VELOX 1 29 Jan 09:42:27 09:45:37 19° 92° (E) 09:48:55 145.980
DUCHIFAT 1 29 Jan 09:43:13 09:47:22 53° 73° (ENE) 09:51:34 145.980
ANTELSAT 29 Jan 09:58:48 10:03:29 63° 259° (W) 10:08:10 437.575/2403.000
SO-50 29 Jan 09:58:58 10:03:24 53° 119° (ESE) 10:08:01 436.795
SEEDS 29 Jan 09:59:50 10:03:07 22° 292° (WNW) 10:06:17 437.485
50 SAT 29 Jan 09:59:55 10:03:19 26° 94° (E) 10:06:44 437.505
AIST 2 29 Jan 10:03:23 10:06:02 16° 38° (NE) 10:08:45 435.215
UKube-1 29 Jan 10:04:35 10:08:59 84° 105° (ESE) 10:13:20 .
TIGRISAT 29 Jan 10:06:40 10:11:17 53° 261° (W) 10:15:54 435.000
BEESAT 2 29 Jan 10:07:17 10:11:01 30° 47° (NE) 10:14:44 435.950
HO-68 29 Jan 10:10:09 10:16:35 37° 297° (WNW) 10:22:55 435.675
CUBEBUG 2 29 Jan 10:11:35 10:16:10 65° 286° (WNW) 10:20:33 437.445
NANOSAT C BR1 29 Jan 10:17:44 10:21:58 63° 259° (W) 10:26:15 145.865
ZACube-1 29 Jan 10:19:21 10:23:49 75° 283° (WNW) 10:28:07 437.345
BEESAT 3 29 Jan 10:21:18 10:25:18 45° 51° (NE) 10:29:17 437.485
HUMSAT D 29 Jan 10:22:38 10:26:52 65° 101° (E) 10:31:01 437.325/437.525
DX 1 29 Jan 10:25:25 10:29:45 56° 287° (WNW) 10:34:03 434.975-435.025
COMPASS 1 29 Jan 10:27:19 10:29:35 14° 296° (WNW) 10:31:41 437.405
FUNcube-1 29 Jan 10:31:24 10:35:46 56° 286° (WNW) 10:40:00 145.935
QB50P2 29 Jan 10:32:15 10:36:21 42° 262° (W) 10:40:28 145.880/145.840
PHONESAT 2.4 29 Jan 10:36:06 10:39:39 56° 173° (S) 10:43:14 2401.200-2431.200
CINEMA 3 29 Jan 10:36:39 10:40:36 25° 294° (WNW) 10:44:20 145.822/145.860
GOMX 1 29 Jan 10:38:23 10:41:11 14° 300° (WNW) 10:43:42 467.674
QB50P1 29 Jan 10:41:50 10:45:45 34° 264° (W) 10:49:40 145.935-145.965
BRITE-PL 29 Jan 10:44:48 10:45:30 10° 304° (WNW) 10:45:52 437.365/2234.400
DELFI C3 29 Jan 10:48:10 10:51:16 21° 292° (WNW) 10:54:16 145.870
AISAT 29 Jan 10:49:41 10:54:14 82° 284° (WNW) 10:58:44 437.250
DOVE 4 29 Jan 10:50:52 10:53:25 13° 300° (WNW) 10:55:40 437.250
UWE-3 29 Jan 10:52:10 10:56:07 29° 291° (WNW) 10:59:54 435.000/436.395/437.385
ESTCUBE 1 29 Jan 10:52:30 10:56:52 47° 99° (E) 11:01:15 437.505/2401.250
BUGSAT 1 29 Jan 10:53:53 10:57:34 31° 264° (W) 11:01:17 437.445
POLYITAN 1 29 Jan 10:57:07 11:00:40 24° 267° (W) 11:04:09 437.675
UNISAT 6 29 Jan 11:01:44 11:04:41 16° 271° (W) 11:07:27 437.425
RS-15 29 Jan 11:05:00 11:14:19 30° 24° (NNE) 11:24:09 29.354- 29.394
Oscar 11 29 Jan 11:07:10 11:09:19 13° 297° (WNW) 11:11:16 145.826/435.025
GONETS M04 29 Jan 11:09:56 11:17:34 34° 68° (ENE) 11:25:20
SPROUT 29 Jan 11:12:40 11:15:36 18° 91° (E) 11:18:41 437.525
AIST 1 29 Jan 11:15:10 11:19:25 86° 278° (W) 11:23:43
VERMONT LUNAR 29 Jan 11:15:28 11:18:55 58° 185° (S) 11:22:23 437.305
VELOX 1 29 Jan 11:18:11 11:22:27 42° 289° (WNW) 11:26:40 145.980
POPSAT HIP 1 29 Jan 11:18:23 11:20:56 15° 270° (W) 11:23:20 437.405
DUCHIFAT 1 29 Jan 11:21:16 11:23:38 14° 271° (W) 11:25:49 145.980
CUBEBUG 1 29 Jan 11:26:19 11:30:47 81° 284° (WNW) 11:35:14 437.445
50 SAT 29 Jan 11:35:00 11:38:24 25° 291° (WNW) 11:41:43 437.505
SO-50 29 Jan 11:40:30 11:44:17 24° 319° (NW) 11:48:06 436.795
AIST 2 29 Jan 11:40:55 11:45:13 77° 239° (WSW) 11:49:26 435.215
UKube-1 29 Jan 11:43:25 11:44:33 11° 299° (WNW) 11:45:28 .
BEESAT 2 29 Jan 11:45:34 11:49:12 29° 245° (WSW) 11:52:45 435.950
TISAT 1 29 Jan 11:48:56 11:53:02 42° 98° (E) 11:57:07 437.305
Gurwin Techsat 1B 29 Jan 11:55:32 11:56:52 11° 58° (ENE) 11:58:30 435.225
BEESAT 3 29 Jan 12:00:13 12:03:10 18° 248° (WSW) 12:05:58 437.485
HUMSAT D 29 Jan 12:00:17 12:02:11 13° 297° (WNW) 12:03:53 437.325/437.525
PCSat 29 Jan 12:12:53 12:17:38 30° 48° (NE) 12:22:26 145.827
PHONESAT 2.4 29 Jan 12:14:31 12:18:04 53° 190° (S) 12:21:38 2401.200-2431.200
SWISSCUBE 29 Jan 12:15:34 12:18:03 14° 89° (E) 12:20:46 437.505
Oscar 19 29 Jan 12:17:07 12:22:16 65° 73° (ENE) 12:27:26 437.125/150
ESTCUBE 1 29 Jan 12:30:16 12:33:27 19° 295° (WNW) 12:36:31 437.505/2401.250
BEESAT 29 Jan 12:30:43 12:34:02 19° 91° (E) 12:37:30 436.000
ITAMSAT 1 29 Jan 12:33:56 12:38:32 34° 68° (ENE) 12:43:13 435.822/435.867
ITUPSAT 1 29 Jan 12:34:30 12:38:00 20° 92° (E) 12:41:37 437.325
SPROUT 29 Jan 12:47:49 12:51:57 42° 288° (WNW) 12:56:03 437.525
VERMONT LUNAR 29 Jan 12:53:41 12:56:45 28° 202° (SSW) 12:59:49 437.305
GONETS M04 29 Jan 13:06:28 13:14:52 55° 269° (W) 13:23:13
RS-15 29 Jan 13:17:46 13:29:07 74° 53° (NE) 13:41:00 29.354- 29.394
TISAT 1 29 Jan 13:25:33 13:28:36 19° 294° (WNW) 13:31:31 437.305
Gurwin Techsat 1B 29 Jan 13:30:46 13:36:03 76° 75° (ENE) 13:41:23 435.225
AO-7 29 Jan 13:32:31 13:39:15 29° 56° (NE) 13:46:10 29.400- 29.500
HORYU 2 29 Jan 13:38:53 13:42:41 28° 68° (ENE) 13:46:34 437.375
SWISSCUBE 29 Jan 13:51:42 13:56:27 63° 286° (WNW) 14:01:10 437.505
PHONESAT 2.4 29 Jan 13:53:23 13:56:16 22° 205° (SSW) 13:59:09 2401.200-2431.200
PCSat 29 Jan 13:56:05 14:01:14 44° 247° (WSW) 14:06:20 145.827
Oscar 19 29 Jan 13:58:53 14:02:09 16° 271° (W) 14:05:12 437.125/150
JAS-2 29 Jan 14:04:40 14:05:41 11° 58° (ENE) 14:07:00 435.910
BEESAT 29 Jan 14:07:36 14:12:12 47° 289° (WNW) 14:16:46 436.000
ITUPSAT 1 29 Jan 14:11:36 14:16:10 44° 289° (WNW) 14:20:42 437.325
ITAMSAT 1 29 Jan 14:13:29 14:18:05 31° 265° (W) 14:22:37 435.822/435.867
DANDE 29 Jan 14:13:39 14:19:40 32° 64° (ENE) 14:24:27 436.750
STARS 29 Jan 14:19:30 14:23:30 32° 96° (E) 14:27:31 437.465
KKS-1 29 Jan 14:25:54 14:30:21 58° 100° (E) 14:34:46 437.445
CUSAT 1 29 Jan 14:41:57 14:48:17 61° 74° (ENE) 14:52:58 437.405
M-CUBED/EXP-1 PRIME 29 Jan 14:46:11 14:48:30 18° 100° (E) 14:50:57 437.505
Gurwin Techsat 1B 29 Jan 15:13:54 15:16:44 14° 273° (W) 15:19:17 435.225
HORYU 2 29 Jan 15:15:21 15:19:19 29° 264° (W) 15:23:15 437.375
AUBIESAT-1 29 Jan 15:18:34 15:21:44 41° 104° (ESE) 15:25:01 437.475
O/OREOS (USA 219) 29 Jan 15:19:54 15:23:44 29° 105° (ESE) 15:27:41 437.305
AO-7 29 Jan 15:23:05 15:31:27 72° 255° (WSW) 15:39:50 29.400- 29.500
RS-15 29 Jan 15:30:59 15:40:51 34° 253° (WSW) 15:50:44 29.354- 29.394
JAS-2 29 Jan 15:44:39 15:50:10 81° 76° (ENE) 15:55:23 435.910
STARS 29 Jan 15:56:12 15:59:53 25° 293° (WNW) 16:03:28 437.465
DANDE 29 Jan 15:57:10 16:03:17 38° 272° (W) 16:07:55 436.750
KKS-1 29 Jan 16:03:53 16:06:36 16° 297° (WNW) 16:09:09 437.445
MOZHAYETS 4 29 Jan 16:06:35 16:10:31 29° 94° (E) 16:14:31
Cubesat XI-IV 29 Jan 16:18:30 16:22:47 26° 65° (ENE) 16:27:14 437.490
M-CUBED/EXP-1 PRIME 29 Jan 16:20:48 16:23:35 25° 295° (WNW) 16:26:22 437.505
CUSAT 1 29 Jan 16:26:33 16:30:19 17° 280° (W) 16:33:20 437.405
CUTE-I 29 Jan 16:37:46 16:42:36 38° 68° (ENE) 16:47:32 437.470
SO-50 29 Jan 16:50:35 16:52:52 13° 32° (NNE) 16:55:18 436.795
AUBIESAT-1 29 Jan 16:55:02 16:56:27 12° 299° (WNW) 16:57:45 437.475
O/OREOS (USA 219) 29 Jan 16:59:11 17:03:08 29° 302° (WNW) 17:07:06 437.305
AO-7 29 Jan 17:21:53 17:25:56 13° 276° (W) 17:29:20 29.400- 29.500
JAS-2 29 Jan 17:34:02 17:36:04 12° 273° (W) 17:37:43 435.910
MOZHAYETS 4 29 Jan 17:43:47 17:47:45 29° 291° (WNW) 17:51:39
PRISM 29 Jan 17:54:50 17:58:44 38° 98° (E) 18:02:38 437.425
Cubesat XI-IV 29 Jan 17:57:40 18:02:43 43° 262° (W) 18:07:47 437.490
CUBESAT XI-V 29 Jan 17:59:39 18:03:54 34° 96° (E) 18:08:11 437.345
YUBILEINY 29 Jan 18:10:35 18:17:25 28° 83° (E) 18:24:32 435.215
STRAND 1 29 Jan 18:13:49 18:18:26 33° 96° (E) 18:23:05 437.568
CUTE-I 29 Jan 18:18:10 18:22:48 29° 266° (W) 18:27:22 437.470
CANX-2 29 Jan 18:26:16 18:26:32 10° 62° (ENE) 18:27:03 2200.000
SO-50 29 Jan 18:29:36 18:34:29 60° 53° (NE) 18:39:22 436.795
GOMX 1 29 Jan 18:31:30 18:34:15 15° 60° (ENE) 18:37:17 467.674
BRITE-PL 29 Jan 18:36:33 18:40:26 23° 64° (ENE) 18:44:39 437.365/2234.400
DOVE 4 29 Jan 18:42:26 18:44:49 14° 60° (ENE) 18:47:29 437.250
CUTE 1.7 + AOD 2 29 Jan 18:47:54 18:50:28 16° 65° (ENE) 18:53:12 437.475
HO-68 29 Jan 18:51:39 18:58:04 38° 64° (ENE) 19:04:35 435.675
SEEDS 29 Jan 19:16:53 19:20:28 27° 69° (ENE) 19:24:05 437.485
PRISM 29 Jan 19:31:02 19:34:02 19° 294° (WNW) 19:36:55 437.425
CUBEBUG 2 29 Jan 19:36:10 19:38:34 14° 63° (ENE) 19:41:11 437.445
CUBESAT XI-V 29 Jan 19:37:19 19:41:15 26° 292° (WNW) 19:45:06 437.345
COMPASS 1 29 Jan 19:42:23 19:46:22 42° 72° (ENE) 19:50:22 437.405
ZACube-1 29 Jan 19:43:11 19:44:27 11° 61° (ENE) 19:45:58 437.345
DX 1 29 Jan 19:47:47 19:50:07 15° 63° (ENE) 19:52:37 434.975-435.025
STRAND 1 29 Jan 19:53:03 19:57:36 32° 293° (WNW) 20:02:06 437.568
FUNcube-1 29 Jan 19:53:49 19:56:09 14° 63° (ENE) 19:58:42 145.935
CANX-2 29 Jan 19:57:36 20:01:55 85° 257° (WSW) 20:06:14 2200.000
CINEMA 3 29 Jan 20:01:05 20:05:39 40° 71° (ENE) 20:10:23 145.822/145.860
DELFI C3 29 Jan 20:01:57 20:05:12 24° 69° (ENE) 20:08:32 145.870
YUBILEINY 29 Jan 20:05:03 20:13:41 64° 283° (WNW) 20:22:20 435.215
GOMX 1 29 Jan 20:06:34 20:11:40 82° 260° (W) 20:17:06 467.674
AAUSAT CUBESAT 2 29 Jan 20:08:07 20:12:20 72° 75° (ENE) 20:16:31 437.432
SO-50 29 Jan 20:11:12 20:14:40 19° 249° (WSW) 20:17:58 436.795
UWE-3 29 Jan 20:13:37 20:17:29 27° 68° (ENE) 20:21:28 435.000/436.395/437.385
BRITE-PL 29 Jan 20:13:37 20:18:34 51° 262° (W) 20:23:53 437.365/2234.400
AISAT 29 Jan 20:15:29 20:16:46 11° 61° (ENE) 20:18:16 437.250
DOVE 4 29 Jan 20:16:48 20:21:52 88° 263° (W) 20:27:12 437.250
CUTE 1.7 + AOD 2 29 Jan 20:21:54 20:26:04 49° 261° (W) 20:30:15 437.475
Oscar 11 29 Jan 20:24:41 20:28:55 54° 73° (ENE) 20:33:11 145.826/435.025
ISS 29 Jan 20:33:34 20:35:34 16° 133° (SE) 20:37:39 145.825
HO-68 29 Jan 20:38:57 20:45:44 44° 262° (W) 20:52:30 435.675
VELOX 1 29 Jan 20:41:25 20:44:34 20° 66° (ENE) 20:47:52 145.980
50 SAT 29 Jan 20:48:39 20:51:36 20° 67° (ENE) 20:54:41 437.505
CUBEBUG 1 29 Jan 20:51:33 20:51:47 10° 61° (ENE) 20:52:15 437.445
SEEDS 29 Jan 20:52:34 20:56:15 27° 265° (W) 20:59:53 437.485
UKube-1 29 Jan 21:00:12 21:04:31 79° 75° (ENE) 21:08:53 .
CUBEBUG 2 29 Jan 21:10:00 21:14:44 73° 259° (WSW) 21:19:33 437.445
HUMSAT D 29 Jan 21:15:12 21:19:25 51° 73° (ENE) 21:23:41 437.325/437.525
ZACube-1 29 Jan 21:15:36 21:20:13 88° 257° (WSW) 21:24:52 437.345
UNISAT 6 29 Jan 21:17:24 21:18:10 11° 86° (E) 21:19:12 437.425
COMPASS 1 29 Jan 21:19:28 21:22:20 17° 269° (W) 21:25:05 437.405
DX 1 29 Jan 21:21:40 21:25:57 58° 259° (W) 21:30:18 434.975-435.025
AIST 1 29 Jan 21:22:01 21:25:36 25° 73° (ENE) 21:29:16
FUNcube-1 29 Jan 21:27:27 21:32:02 67° 259° (W) 21:36:39 145.935
DELFI C3 29 Jan 21:36:47 21:40:22 28° 265° (W) 21:43:54 145.870
CINEMA 3 29 Jan 21:38:55 21:43:02 25° 268° (W) 21:47:06 145.822/145.860
AISAT 29 Jan 21:48:21 21:52:48 82° 257° (WSW) 21:57:20 437.250
UWE-3 29 Jan 21:49:40 21:53:56 34° 265° (W) 21:58:12 435.000/436.395/437.385
ANTELSAT 29 Jan 21:51:03 21:54:44 25° 93° (E) 21:58:23 437.575/2403.000
ESTCUBE 1 29 Jan 21:52:59 21:57:16 48° 72° (ENE) 22:01:37 437.505/2401.250
TIGRISAT 29 Jan 21:58:21 22:02:14 29° 95° (E) 22:06:05 435.000
DOVE 4 29 Jan 21:59:16 22:00:34 11° 277° (W) 22:01:32 437.250
Oscar 11 29 Jan 22:03:04 22:05:30 14° 271° (W) 22:07:46 145.826/435.025
NANOSAT C BR1 29 Jan 22:03:04 22:06:13 20° 92° (E) 22:09:27 145.865
SPROUT 29 Jan 22:08:20 22:11:01 17° 65° (ENE) 22:13:49 437.525
ISS 29 Jan 22:08:30 22:11:45 67° 329° (NNW) 22:15:03 145.825
YUBILEINY 29 Jan 22:08:44 22:12:48 13° 308° (NW) 22:16:18 435.215
VELOX 1 29 Jan 22:16:42 22:20:55 42° 262° (W) 22:25:09 145.980
QB50P2 29 Jan 22:17:15 22:21:01 29° 95° (E) 22:24:47 145.880/145.840
50 SAT 29 Jan 22:22:41 22:26:31 36° 263° (W) 22:30:22 437.505
CUBEBUG 1 29 Jan 22:23:11 22:27:32 88° 260° (W) 22:31:57 437.445
QB50P1 29 Jan 22:26:15 22:30:13 35° 97° (E) 22:34:11 145.935-145.965
BUGSAT 1 29 Jan 22:35:14 22:39:10 34° 97° (E) 22:43:06 437.445
POLYITAN 1 29 Jan 22:41:14 22:45:29 53° 100° (E) 22:49:41 437.675
TISAT 1 29 Jan 22:42:15 22:46:06 35° 70° (ENE) 22:50:02 437.305
UNISAT 6 29 Jan 22:51:10 22:55:39 73° 285° (WNW) 22:59:58 437.425
HUMSAT D 29 Jan 22:52:58 22:55:35 15° 270° (W) 22:58:02 437.325/437.525
AIST 1 29 Jan 22:59:32 23:03:17 28° 270° (W) 23:07:00
POPSAT HIP 1 29 Jan 23:00:55 23:05:16 87° 102° (ESE) 23:09:34 437.405
DUCHIFAT 1 29 Jan 23:03:14 23:07:35 89° 281° (W) 23:11:52 145.980
SWISSCUBE 29 Jan 23:22:59 23:26:16 19° 64° (ENE) 23:29:42 437.505
ANTELSAT 29 Jan 23:27:38 23:31:35 30° 291° (WNW) 23:35:23 437.575/2403.000
ESTCUBE 1 29 Jan 23:31:29 23:34:29 17° 270° (W) 23:37:20 437.505/2401.250
TIGRISAT 29 Jan 23:35:11 23:38:58 27° 292° (WNW) 23:42:35 435.000
BEESAT 29 Jan 23:38:05 23:41:53 25° 66° (ENE) 23:45:46 436.000
NANOSAT C BR1 29 Jan 23:38:16 23:42:15 37° 289° (WNW) 23:46:12 145.865
ITUPSAT 1 29 Jan 23:42:13 23:46:07 26° 67° (ENE) 23:50:07 437.325
SPROUT 29 Jan 23:42:34 23:46:46 49° 261° (W) 23:51:00 437.525
ISS 29 Jan 23:46:10 23:48:44 20° 348° (NNW) 23:51:17 145.825
QB50P2 29 Jan 23:53:14 23:56:52 26° 292° (WNW) 00:00:25 145.880/145.840
QB50P1 30 Jan 00:02:35 00:05:57 22° 293° (WNW) 00:09:11 145.935-145.965
BUGSAT 1 30 Jan 00:11:07 00:14:30 22° 293° (WNW) 00:17:47 437.445
GONETS M04 30 Jan 00:12:13 00:19:55 38° 87° (E) 00:27:45
POLYITAN 1 30 Jan 00:18:24 00:21:03 16° 296° (WNW) 00:23:32 437.675
TISAT 1 30 Jan 00:18:50 00:22:05 21° 267° (W) 00:25:15 437.305
Oscar 19 30 Jan 00:28:48 00:32:37 21° 91° (E) 00:36:33 437.125/150
POPSAT HIP 1 30 Jan 00:40:15 00:40:34 10° 299° (WNW) 00:40:39 437.405
ITAMSAT 1 30 Jan 00:48:34 00:49:34 11° 86° (E) 00:50:55 435.822/435.867
SWISSCUBE 30 Jan 00:59:13 01:03:50 50° 261° (W) 01:08:28 437.505
BEESAT 30 Jan 01:15:09 01:19:35 37° 263° (W) 01:24:00 436.000
STARS 30 Jan 01:17:25 01:21:21 32° 69° (ENE) 01:25:22 437.465
ITUPSAT 1 30 Jan 01:19:34 01:23:55 35° 263° (W) 01:28:16 437.325
ISS 30 Jan 01:23:41 01:26:06 18° 8° (N) 01:28:31 145.825
KKS-1 30 Jan 01:24:46 01:29:09 58° 73° (ENE) 01:33:35 437.445
O/OREOS (USA 219) 30 Jan 01:28:21 01:32:57 65° 65° (ENE) 01:37:31 437.305
M-CUBED/EXP-1 PRIME 30 Jan 01:35:41 01:39:18 34° 67° (ENE) 01:42:41 437.505
BEESAT 2 30 Jan 01:40:31 01:44:24 43° 118° (ESE) 01:48:24 435.950
AIST 2 30 Jan 01:40:57 01:43:54 19° 112° (ESE) 01:47:01 435.215
Gurwin Techsat 1B 30 Jan 01:46:41 01:51:12 28° 94° (E) 01:55:47 435.225
BEESAT 3 30 Jan 01:53:41 01:57:45 69° 121° (ESE) 02:01:54 437.485
Oscar 19 30 Jan 02:07:19 02:12:17 48° 290° (WNW) 02:17:11 437.125/150
AUBIESAT-1 30 Jan 02:07:56 02:11:54 75° 71° (ENE) 02:15:34 437.475
GONETS M04 30 Jan 02:08:08 02:16:36 50° 286° (WNW) 02:24:59
CUSAT 1 30 Jan 02:09:15 02:13:41 16° 81° (E) 02:18:39 437.405
ITAMSAT 1 30 Jan 02:24:40 02:29:56 88° 101° (E) 02:35:11 435.822/435.867
